Regional Weather Roundup
Issued by NWS

Home | Current Version | Previous Version | Graphics & Text | Print | Product List | Glossary On
Versions: 1 2 3 4 5 6 7 8 9 10 11 12 13 14 15 16 17 18 19 20 21 22 23 24 25 26 27 28 29 30 31 32 33 34 35 36 37 38 39 40 41 42 43 44 45 46 47 48 49 50
000
ASUS44 KMEG 230000
RWRTN
TENNESSEE HOURLY STATE WEATHER ROUNDUP
NATIONAL WEATHER SERVICE MEMPHIS TN
600 PM CST WED FEB 22 2017

TNZ002-004-019-021-049-052-054-088>092-230100-
WEST TENNESSEE

CITY           SKY/WX    TMP DP  RH WIND       PRES   REMARKS
MEMPHIS INTL   PTCLDY    71  55  56 S9        29.79S
NWS MEMPHIS      N/A     71 N/A N/A MISG        N/A
JACKSON        CLEAR     67  58  72 SE3       29.81S
UNION CITY     PTCLDY    64  55  72 CALM      29.79S
PARIS          CLOUDY    64  55  72 S7        29.82S
$$

TNZ008-025-027-028-033-062-065-066-230100-
NORTH MIDDLE TENNESSEE

CITY           SKY/WX    TMP DP  RH WIND       PRES   REMARKS
NASHVILLE      MOCLDY    65  56  72 S3        29.85S
CLARKSVILLE    CLEAR     67  54  63 S9        29.82R
SMYRNA         CLOUDY    64  58  80 CALM      29.86R
CROSSVILLE     CLEAR     59  54  83 CALM      29.89S
$$

TNZ061-075-076-078-094-096-097-230100-
SOUTH MIDDLE TENNESSEE

CITY           SKY/WX    TMP DP  RH WIND       PRES   REMARKS
TULLAHOMA      MOCLDY    63  55  77 SE6       29.87R
WINCHESTER     PTCLDY    63  55  77 SE3       29.87S
MCMINNVILLE    CLEAR     63  55  77 CALM      29.87R
COLUMBIA       CLOUDY    64  64 100 CALM      29.84R
SHELBYVILLE    MOCLDY    64  59  82 CALM      29.86R
$$

TNZ017-018-042-046-047-230100-
NORTHEAST TENNESSEE

CITY           SKY/WX    TMP DP  RH WIND       PRES   REMARKS
TRI CITIES     CLOUDY    54  54 100 CALM      29.92R FOG
$$

TNZ012-013-036-069-073-074-230100-
CENTRAL EAST TENNESSEE

CITY           SKY/WX    TMP DP  RH WIND       PRES   REMARKS
KNOXVILLE      CLOUDY    59  55  87 NE5       29.89R
OAK RIDGE      CLOUDY    58  54  86 CALM      29.91R
GATLINBURG     CLOUDY    57  55  94 CALM      29.90R
$$

TNZ083-085-099-230100-
SOUTHEAST TENNESSEE

CITY           SKY/WX    TMP DP  RH WIND       PRES   REMARKS
CHATTANOOGA    MOCLDY    64  56  75 CALM      29.87R
$$

SKY/WX REPORTED AS FAIR MEANS FEW OR NO CLOUDS BELOW
12 THOUSAND FEET.




USA.gov is the U.S. government's official web portal to all federal, state and local government web resources and services.